EW9507 Weather Reports


Display with metric or nautical units.
time (UTC)temp
F
wind
direction
speed
MPH
gust
MPH
rain 1hr
in
rain 24hr
in
rain mn
in
humidity
%
barometer
mb
20260904004558 82 214 7.0 13.0 0.00 0.00 0.00 12 1000.7
20260904003019 83 243 13.0 19.0 0.00 0.00 0.00 11 1000.7
20260904001514 83 227 15.0 25.0 0.00 0.00 0.00 12 1000.7
20260904000011 84 229 13.0 22.0 0.00 0.00 0.00 11 1000.6
20260903234511 84 193 12.0 18.0 0.00 0.00 0.00 11 1000.5
20260903233010 85 252 17.0 24.0 0.00 0.00 0.00 11 1000.5
20260903231512 85 225 17.0 26.0 0.00 0.00 0.00 11 1000.5
20260903230006 85 264 13.0 22.0 0.00 0.00 0.00 11 1000.5
20260903224518 85 217 16.0 26.0 0.00 0.00 0.00 11 1000.4
20260903223003 84 245 13.0 18.0 0.00 0.00 0.00 11 1000.5
20260903221503 84 222 18.0 23.0 0.00 0.00 0.00 11 1000.5
20260903220039 84 245 9.0 26.0 0.00 0.00 0.00 12 1000.4
20260903214532 84 271 14.0 18.0 0.00 0.00 0.00 11 1000.5
20260903213129 84 269 14.0 27.0 0.00 0.00 0.00 11 1000.5
20260903211618 84 246 13.0 24.0 0.00 0.00 0.00 12 1000.5
20260903204554 84 260 17.0 27.0 0.00 0.00 0.00 13 1000.5
20260903203054 84 211 18.0 30.0 0.00 0.00 0.00 12 1000.5
20260903201553 83 250 7.0 20.0 0.00 0.00 0.00 13 1000.5
20260903200051 83 238 13.0 22.0 0.00 0.00 0.00 14 1000.6
20260903194521 83 214 12.0 25.0 0.00 0.00 0.00 14 1000.7
20260903193020 82 253 17.0 22.0 0.00 0.00 0.00 14 1000.8
20260903191516 82 266 14.0 19.0 0.00 0.00 0.00 16 1000.9
20260903190013 82 260 15.0 24.0 0.00 0.00 0.00 16 1001.0
20260903184513 82 279 16.0 27.0 0.00 0.00 0.00 15 1001.1
20260903183010 82 236 14.0 24.0 0.00 0.00 0.00 17 1001.3
20260903181607 81 259 19.0 30.0 0.00 0.00 0.00 16 1001.2
20260903180006 80 257 13.0 24.0 0.00 0.00 0.00 20 1001.3
20260903174506 79 248 14.0 23.0 0.00 0.00 0.00 23 1001.5
20260903173002 78 220 17.0 27.0 0.00 0.00 0.00 25 1001.7
20260903171601 78 231 14.0 28.0 0.00 0.00 0.00 27 1001.6
20260903170108 77 234 16.0 23.0 0.00 0.00 0.00 29 1001.5
20260903164554 76 246 14.0 28.0 0.00 0.00 0.00 31 1001.4
20260903163050 76 269 14.0 23.0 0.00 0.00 0.00 31 1001.4
20260903161549 75 243 15.0 20.0 0.00 0.00 0.00 32 1001.3
20260903160047 74 265 10.0 21.0 0.00 0.00 0.00 35 1001.3
20260903154540 73 265 10.0 20.0 0.00 0.00 0.00 38 1001.4
20260903153044 73 217 11.0 18.0 0.00 0.00 0.00 39 1001.5
20260903151548 72 257 10.0 16.0 0.00 0.00 0.00 39 1001.5
20260903150034 72 239 12.0 18.0 0.00 0.00 0.00 40 1001.7
20260903144534 71 209 14.0 19.0 0.00 0.00 0.00 40 1001.6
20260903143029 71 260 6.0 10.0 0.00 0.00 0.00 37 1001.7
20260903141523 69 240 1.0 3.0 0.00 0.00 0.00 38 1001.6
20260903140020 66 264 2.0 7.0 0.00 0.00 0.00 44 1001.4
20260903134518 65 217 3.0 5.0 0.00 0.00 0.00 46 1001.4
20260903133016 66 259 1.0 3.0 0.00 0.00 0.00 41 1001.2
20260903131511 66 269 0.0 4.0 0.00 0.00 0.00 41 1001.0
20260903130010 66 344 2.0 5.0 0.00 0.00 0.00 41 1000.8
20260903124509 67 236 3.0 11.0 0.00 0.00 0.00 39 1000.5
20260903123008 67 302 5.0 10.0 0.00 0.00 0.00 38 1000.5
20260903121506 67 255 5.0 8.0 0.00 0.00 0.00 39 1000.1
20260903120107 68 227 7.0 13.0 0.00 0.00 0.00 37 1000.0
20260903114504 68 286 1.0 10.0 0.00 0.00 0.00 39 1000.2
20260903113003 67 220 7.0 14.0 0.00 0.00 0.00 39 1000.6
20260903111555 67 217 9.0 17.0 0.00 0.00 0.00 38 1000.4
20260903110032 67 243 11.0 17.0 0.00 0.00 0.00 38 1000.4
20260903104501 68 219 13.0 22.0 0.00 0.00 0.00 38 1000.5
20260903103100 67 243 13.0 17.0 0.00 0.00 0.00 39 1000.2
20260903101529 67 230 9.0 15.0 0.00 0.00 0.00 39 1000.4
20260903100029 66 230 9.0 12.0 0.00 0.00 0.00 40 1000.3
20260903094607 66 215 7.0 12.0 0.00 0.00 0.00 39 1000.2
20260903093058 68 234 10.0 16.0 0.00 0.00 0.00 37 1000.2
20260903091555 68 227 11.0 16.0 0.00 0.00 0.00 36 1000.2
20260903090054 69 223 11.0 17.0 0.00 0.00 0.00 35 1000.1
20260903084553 68 245 10.0 14.0 0.00 0.00 0.00 36 1000.3
20260903083053 68 229 10.0 15.0 0.00 0.00 0.00 35 1000.3
20260903081521 68 229 9.0 14.0 0.00 0.00 0.00 36 1000.4
20260903080021 68 233 10.0 16.0 0.00 0.00 0.00 36 1000.5
20260903074518 69 231 11.0 18.0 0.00 0.00 0.00 35 1000.6
20260903073033 68 226 13.0 17.0 0.00 0.00 0.00 36 1000.7
20260903071514 66 226 10.0 13.0 0.00 0.00 0.00 41 1000.7
20260903070010 65 223 8.0 10.0 0.00 0.00 0.00 44 1000.5
20260903064509 66 203 8.0 14.0 0.00 0.00 0.00 45 1000.4
20260903063036 66 212 6.0 11.0 0.00 0.00 0.00 46 1000.4
20260903061555 66 212 6.0 10.0 0.00 0.00 0.00 45 1000.5
20260903060034 66 225 7.0 9.0 0.00 0.00 0.00 45 1000.5
20260903054528 68 197 4.0 8.0 0.00 0.00 0.00 43 1000.4
20260903053026 69 216 6.0 11.0 0.00 0.00 0.00 41 1000.6
20260903051527 69 225 9.0 15.0 0.00 0.00 0.00 41 1000.9
20260903050022 69 213 10.0 15.0 0.00 0.00 0.00 41 1000.9
20260903044522 68 222 8.0 12.0 0.00 0.00 0.00 41 1000.9
20260903043021 69 218 7.0 10.0 0.00 0.00 0.00 40 1001.2
20260903041526 71 212 9.0 13.0 0.00 0.00 0.00 38 1001.2
20260903040119 72 231 11.0 16.0 0.00 0.00 0.00 36 1001.2
20260903034519 71 221 9.0 12.0 0.00 0.00 0.00 37 1001.2
20260903033017 70 223 7.0 11.0 0.00 0.00 0.00 37 1001.2
20260903031517 67 223 5.0 7.0 0.00 0.00 0.00 38 1001.2
20260903030108 67 213 3.0 6.0 0.00 0.00 0.00 38 1001.3
20260903024546 68 211 4.0 6.0 0.00 0.00 0.00 38 1001.1
20260903023043 69 196 4.0 6.0 0.00 0.00 0.00 35 1000.8
20260903021543 70 203 3.0 4.0 0.00 0.00 0.00 34 1000.7
20260903020043 73 203 3.0 4.0 0.00 0.00 0.00 32 1000.5
20260903014541 77 212 6.0 11.0 0.00 0.00 0.00 28 1000.3
20260903013016 78 210 9.0 14.0 0.00 0.00 0.00 26 1000.3
20260903011513 80 222 14.0 23.0 0.00 0.00 0.00 24 1000.4
20260903010041 81 226 14.0 20.0 0.00 0.00 0.00 24 1000.5